SCP
0 0 0 0 -0 0 0 0 0 -0 -0 0 0 0 0 0 0 0 0 0 0 0 0 0 0 0 0 0 0 0 0 0
0 1 0 0 0 0 0 0 0 -0 -0 -0 0 0 0 0 0 0 0 0 0 0 0 0 0 0 0 0 0 0 0 0
0 0 0 0 0 0 0 0 0 0 0 0 0 0 0 0 0 0 0 0 0 0 0 0 0 0 0 0 0 1 0 0
-0 0 0 0 0 0 0 1 0 0 -0 -0 0 0 0 1 1 1 1 1 0 0 0 0 0 0 0 0 0 1 1 0
0 0 0 0 0 0 -0 0 -0 -0 0 -0 0 0 0 1 1 1 1 1 1 0 0 1 1 1 0 0 0 0 0 0
-0 -0 -0 -0 0 0 -0 0 0 -0 0 -0 -0 0 0 1 1 1 1 1 0 0 0 0 0 0 0 0 0 0 0 1
0 0 0 0 0 0 0 0 -0 0 -0 -0 -0 0 0 0 1 1 1 1 1 1 0 0 0 0 0 1 1 0 1 1
-0 -0 -0 -0 -0 -0 0 0 0 0 0 0 0 -0 0 0 0 0 0 0 0 0 0 0 0 0 1 1 1 1 1 1
-0 -0 -0 -0 -0 -0 -0 0 0 0 0 0 0 0 0 0 -0 0 0 0 0 0 0 0 0 0 0 0 0 1 1 0
0 0 -0 -0 -0 -0 -0 -0 0 0 0 0 0 0 0 0 0 0 0 0 0 0 0 0 0 0 0 0 0 0 0 0
0 0 0 0 0 -0 -0 0 0 0 0 0 0 0 0 0 0 0 0 0 0 0 0 0 0 0 0 0 0 0 0 0
0 0 0 0 0 0 0 0 0 0 0 0 0 0 0 0 0 0 0 0 0 0 0 0 0 0 0 0 0 0 0 0
0 0 0 0 0 0 0 -0 0 0 -0 -0 0 0 0 0 0 0 0 0 0 0 0 0 0 0 0 0 0 0 0 0
0 0 0 0 0 0 0 -0 0 0 -0 -0 -0 -0 -0 0 0 0 0 0 0 0 0 0 0 0 0 0 0 0 0 0
0 0 0 0 0 0 0 0 0 0 -0 0 -0 -0 -0 -0 -0 -0 0 0 0 0 0 0 0 0 0 0 0 0 0 0
0 0 0 0 0 0 0 0 0 0 0 0 0 -0 -0 -0 -0 -0 -0 0 0 0 0 0 0 0 0 0 0 0 0 0
0 0 0 0 0 0 0 0 0 0 0 0 0 0 0 0 0 -0 -0 -0 0 0 0 0 0 0 0 0 0 0 0 0
0 0 0 0 0 0 0 0 0 0 0 0 0 0 0 0 0 0 0 0 0 0 0 0 0 0 0 0 0 0 0 0
0 0 0 0 0 0 0 0 0 0 0 0 0 0 0 0 0 0 0 0 0 0 0 0 0 0 0 0 0 0 0 0
Wind_Speed_500mb
24 21 18 18 18 17 16 13 9 6 8 14 17 16 17 18 18 18 17 17 18 20 23 29 35 38 39 37 33 30 28 29
15 20 18 18 18 16 15 12 6 6 8 14 18 21 21 21 23 24 23 22 22 22 24 27 31 36 39 40 39 36 34 34
14 15 15 21 20 16 15 14 8 3 5 12 18 22 24 24 26 28 29 29 27 26 26 28 32 34 37 38 39 39 39 40
15 15 14 11 13 13 16 16 13 6 8 15 20 24 26 27 29 31 32 33 32 32 33 34 36 39 40 42 43 43 43 43
14 17 21 7 1 12 9 16 9 10 15 24 25 22 25 27 30 31 32 33 33 36 38 38 40 42 44 46 47 47 48 48
4 5 10 24 4 17 9 11 13 9 19 24 18 21 34 36 34 33 31 35 36 38 41 43 43 42 44 46 49 50 52 56
32 37 40 44 17 16 23 30 13 15 23 30 38 56 60 52 44 38 36 35 39 40 43 44 44 44 44 47 49 52 57 60
53 50 58 49 37 22 8 18 21 28 32 39 39 40 35 31 32 40 29 32 39 42 55 56 44 51 50 47 46 46 47 55
64 56 52 43 45 42 38 36 33 33 30 31 30 28 26 24 39 30 32 41 40 36 52 67 54 53 54 51 51 51 48 47
47 46 45 38 30 31 33 31 32 28 25 29 36 34 30 28 32 33 38 40 43 46 42 42 54 57 48 45 50 52 57 55
41 45 39 37 35 36 30 25 21 24 25 21 23 23 23 24 22 23 25 28 27 31 39 38 40 51 50 48 51 54 47 56
34 32 34 31 22 20 21 26 23 21 22 23 30 22 22 23 23 24 23 23 27 30 33 35 34 40 56 62 64 63 60 66
24 26 29 29 30 33 31 38 33 30 36 39 44 44 40 35 34 35 34 31 31 40 42 38 32 36 40 45 55 62 72 77
9 26 28 30 32 31 31 35 22 32 47 43 45 55 56 52 49 47 42 36 31 28 34 44 39 37 38 41 43 45 42 47
14 28 21 26 25 28 30 23 17 27 25 34 42 52 61 60 59 57 54 51 46 32 28 32 32 34 34 34 41 42 36 39
17 22 15 8 8 15 20 22 29 34 36 40 48 51 53 53 54 57 54 45 42 44 37 30 31 33 32 28 33 36 33 30
18 13 12 11 6 11 17 28 33 38 42 43 43 44 44 49 50 49 49 45 38 31 35 34 31 29 29 24 28 26 20 18
12 9 7 10 13 23 30 39 43 37 36 41 43 44 43 46 50 48 45 44 40 33 28 27 30 29 30 30 25 19 13 11
18 14 14 19 27 38 47 46 45 41 43 36 36 39 42 46 47 48 47 47 46 36 26 28 26 26 27 31 31 25 24 26
Wind_Direction_500mb
125 122 118 116 104 97 91 88 122 178 181 193 201 204 209 214 215 217 219 220 218 214 211 210 209 211 215 217 216 214 211 208
151 137 129 114 106 103 96 92 101 197 200 204 208 214 221 229 231 233 235 235 233 229 224 223 221 221 221 223 224 223 224 225
184 127 117 118 112 101 112 114 86 85 203 215 219 222 225 232 237 235 239 245 247 245 243 239 237 236 234 233 231 231 233 236
105 81 98 98 104 130 140 143 152 173 236 242 243 242 240 240 242 245 246 243 248 252 250 248 246 244 243 244 243 240 240 242
117 60 69 12 154 193 162 133 144 195 222 229 239 250 254 254 254 256 260 261 258 258 259 258 255 252 251 249 250 251 251 250
101 271 304 18 247 201 153 142 195 235 262 271 276 295 286 263 248 252 255 261 266 265 266 266 263 259 257 256 257 258 258 256
91 76 63 57 26 152 157 353 259 354 301 286 281 295 300 254 246 245 253 258 260 256 261 260 261 260 258 255 257 260 259 261
79 78 78 79 69 153 68 61 36 29 360 326 306 325 306 248 258 248 251 276 275 273 267 256 260 262 260 260 262 266 267 267
79 75 68 71 67 62 51 40 22 12 2 358 1 334 327 292 305 300 273 286 286 281 267 261 260 262 259 258 257 256 264 266
75 82 81 72 73 66 54 46 25 5 353 0 7 358 347 334 335 320 305 301 296 284 262 249 256 256 248 255 255 258 259 257
97 92 89 79 79 73 66 50 39 25 10 0 355 1 8 359 351 340 337 329 326 316 286 259 269 256 255 253 254 260 264 261
94 91 71 59 46 51 44 28 10 16 7 16 12 354 348 353 352 332 325 317 314 313 315 302 289 280 268 263 263 261 261 266
100 46 41 38 30 27 35 19 12 6 347 338 331 336 331 333 332 334 327 315 306 304 304 296 301 290 282 273 271 271 262 258
69 45 48 47 31 23 18 11 20 8 353 340 322 333 330 325 321 319 319 314 304 291 291 295 291 297 293 284 278 278 272 265
53 44 48 52 22 360 6 354 8 339 334 331 330 326 321 319 318 314 307 303 295 294 285 281 291 295 299 289 285 283 281 270
60 41 78 44 31 360 348 347 345 348 339 332 330 327 325 326 328 330 329 318 296 286 289 294 290 294 293 310 297 283 286 271
60 110 118 96 56 12 8 349 349 342 338 336 341 345 342 338 338 343 346 345 340 320 284 280 282 287 282 304 315 299 300 290
97 98 82 67 36 16 1 354 356 355 350 351 351 347 351 349 348 350 354 356 355 352 346 305 289 285 291 289 300 274 263 244
97 90 63 33 15 7 4 11 16 22 15 10 0 356 355 349 347 351 353 356 359 8 2 346 308 291 281 288 292 275 250 252
Wind_Speed_850mb
24 21 18 18 18 17 16 13 9 6 8 14 17 16 17 18 18 18 17 17 18 20 23 29 35 38 39 37 33 30 28 29
15 20 18 18 18 16 15 12 6 6 8 14 18 21 21 21 23 24 23 22 22 22 24 27 31 36 39 40 39 36 34 34
14 15 15 21 20 16 15 14 8 3 5 12 18 22 24 24 26 28 29 29 27 26 26 28 32 34 37 38 39 39 39 40
15 15 14 11 13 13 16 16 13 6 8 15 20 24 26 27 29 31 32 33 32 32 33 34 36 39 40 42 43 43 43 43
14 17 21 7 1 12 9 16 9 10 15 24 25 22 25 27 30 31 32 33 33 36 38 38 40 42 44 46 47 47 48 48
4 5 10 24 4 17 9 11 13 9 19 24 18 21 34 36 34 33 31 35 36 38 41 43 43 42 44 46 49 50 52 56
32 37 40 44 17 16 23 30 13 15 23 30 38 56 60 52 44 38 36 35 39 40 43 44 44 44 44 47 49 52 57 60
53 50 58 49 37 22 8 18 21 28 32 39 39 40 35 31 32 40 29 32 39 42 55 56 44 51 50 47 46 46 47 55
64 56 52 43 45 42 38 36 33 33 30 31 30 28 26 24 39 30 32 41 40 36 52 67 54 53 54 51 51 51 48 47
47 46 45 38 30 31 33 31 32 28 25 29 36 34 30 28 32 33 38 40 43 46 42 42 54 57 48 45 50 52 57 55
41 45 39 37 35 36 30 25 21 24 25 21 23 23 23 24 22 23 25 28 27 31 39 38 40 51 50 48 51 54 47 56
34 32 34 31 22 20 21 26 23 21 22 23 30 22 22 23 23 24 23 23 27 30 33 35 34 40 56 62 64 63 60 66
24 26 29 29 30 33 31 38 33 30 36 39 44 44 40 35 34 35 34 31 31 40 42 38 32 36 40 45 55 62 72 77
9 26 28 30 32 31 31 35 22 32 47 43 45 55 56 52 49 47 42 36 31 28 34 44 39 37 38 41 43 45 42 47
14 28 21 26 25 28 30 23 17 27 25 34 42 52 61 60 59 57 54 51 46 32 28 32 32 34 34 34 41 42 36 39
17 22 15 8 8 15 20 22 29 34 36 40 48 51 53 53 54 57 54 45 42 44 37 30 31 33 32 28 33 36 33 30
18 13 12 11 6 11 17 28 33 38 42 43 43 44 44 49 50 49 49 45 38 31 35 34 31 29 29 24 28 26 20 18
12 9 7 10 13 23 30 39 43 37 36 41 43 44 43 46 50 48 45 44 40 33 28 27 30 29 30 30 25 19 13 11
18 14 14 19 27 38 47 46 45 41 43 36 36 39 42 46 47 48 47 47 46 36 26 28 26 26 27 31 31 25 24 26
Wind_Direction_850mb
125 122 118 116 104 97 91 88 122 178 181 193 201 204 209 214 215 217 219 220 218 214 211 210 209 211 215 217 216 214 211 208
151 137 129 114 106 103 96 92 101 197 200 204 208 214 221 229 231 233 235 235 233 229 224 223 221 221 221 223 224 223 224 225
184 127 117 118 112 101 112 114 86 85 203 215 219 222 225 232 237 235 239 245 247 245 243 239 237 236 234 233 231 231 233 236
105 81 98 98 104 130 140 143 152 173 236 242 243 242 240 240 242 245 246 243 248 252 250 248 246 244 243 244 243 240 240 242
117 60 69 12 154 193 162 133 144 195 222 229 239 250 254 254 254 256 260 261 258 258 259 258 255 252 251 249 250 251 251 250
101 271 304 18 247 201 153 142 195 235 262 271 276 295 286 263 248 252 255 261 266 265 266 266 263 259 257 256 257 258 258 256
91 76 63 57 26 152 157 353 259 354 301 286 281 295 300 254 246 245 253 258 260 256 261 260 261 260 258 255 257 260 259 261
79 78 78 79 69 153 68 61 36 29 360 326 306 325 306 248 258 248 251 276 275 273 267 256 260 262 260 260 262 266 267 267
79 75 68 71 67 62 51 40 22 12 2 358 1 334 327 292 305 300 273 286 286 281 267 261 260 262 259 258 257 256 264 266
75 82 81 72 73 66 54 46 25 5 353 0 7 358 347 334 335 320 305 301 296 284 262 249 256 256 248 255 255 258 259 257
97 92 89 79 79 73 66 50 39 25 10 0 355 1 8 359 351 340 337 329 326 316 286 259 269 256 255 253 254 260 264 261
94 91 71 59 46 51 44 28 10 16 7 16 12 354 348 353 352 332 325 317 314 313 315 302 289 280 268 263 263 261 261 266
100 46 41 38 30 27 35 19 12 6 347 338 331 336 331 333 332 334 327 315 306 304 304 296 301 290 282 273 271 271 262 258
69 45 48 47 31 23 18 11 20 8 353 340 322 333 330 325 321 319 319 314 304 291 291 295 291 297 293 284 278 278 272 265
53 44 48 52 22 360 6 354 8 339 334 331 330 326 321 319 318 314 307 303 295 294 285 281 291 295 299 289 285 283 281 270
60 41 78 44 31 360 348 347 345 348 339 332 330 327 325 326 328 330 329 318 296 286 289 294 290 294 293 310 297 283 286 271
60 110 118 96 56 12 8 349 349 342 338 336 341 345 342 338 338 343 346 345 340 320 284 280 282 287 282 304 315 299 300 290
97 98 82 67 36 16 1 354 356 355 350 351 351 347 351 349 348 350 354 356 355 352 346 305 289 285 291 289 300 274 263 244
97 90 63 33 15 7 4 11 16 22 15 10 0 356 355 349 347 351 353 356 359 8 2 346 308 291 281 288 292 275 250 252